Regional Weather Roundup
Issued by NWS

Home | Current Version | Previous Version | Text Only | Print | Product List | Glossary On
Versions: 1 2 3 4 5 6 7 8 9 10 11 12 13 14 15 16 17 18 19 20 21 22 23 24 25 26 27 28 29 30 31 32 33 34 35 36 37 38 39 40 41 42 43 44 45 46 47 48 49 50
000
ASUS43 KFSD 040910
RWRSD

WEATHER ROUNDUP FOR SOUTH DAKOTA
NATIONAL WEATHER SERVICE SIOUX FALLS SD
400 AM CDT WED MAY 04 2016

NOTE: "FAIR" INDICATES FEW OR NO CLOUDS BELOW 12,000 FEET WITH NO
SIGNIFICANT WEATHER AND/OR OBSTRUCTIONS TO VISIBILITY.


SDZ001>005-009-010-012>017-041000-
NORTHWEST AND NORTH CENTRAL SOUTH DAKOTA

CITY           SKY/WX    TMP DP  RH WIND       PRES   REMARKS
BUFFALO          N/A     52  37  56 W7        30.06S
FAITH            N/A     51  37  58 E3        30.11S
MOBRIDGE       CLEAR     39  32  76 CALM      30.07S
$$

SDZ012>016-024>037-041>051-057-063-072>074-041000-
SOUTHWEST AND SOUTH CENTRAL SOUTH DAKOTA

CITY           SKY/WX    TMP DP  RH WIND       PRES   REMARKS
RAPID CTY ARPT CLEAR     47  37  68 NW9       30.13R
PIERRE         CLEAR     45  32  60 CALM      30.08R
CUSTER         CLEAR     45  31  58 NW6       30.22S
ELLSWORTH AFB  CLEAR     47  38  71 W7        30.12S
PHILIP         CLEAR     42  39  89 W3        30.11R
PINE RIDGE     CLEAR     37  34  89 CALM      30.13F
WINNER         FAIR      45  38  76 W3        30.09R
$$

SDZ004>011-016>023-039-040-041000-
NORTHEAST SOUTH DAKOTA

CITY           SKY/WX    TMP DP  RH WIND       PRES   REMARKS
ABERDEEN       CLEAR     40  31  70 NW8       30.06R
WATERTOWN      CLEAR     38  30  73 N6        30.01R
SISSETON         N/A     42  31  64 NW10      30.02R
$$

SDZ017-020-022-023-036>040-048>070-041000-
SOUTHEAST SOUTH DAKOTA

CITY           SKY/WX    TMP DP  RH WIND       PRES   REMARKS
SIOUX FALLS    CLEAR     46  32  58 N13       29.99R
HURON          CLEAR     38  33  82 NW8       30.04R
CHAMBERLAIN    CLEAR     51  33  50 N7        30.07S
MITCHELL       CLEAR     44  36  73 NW10      30.04R
YANKTON        CLEAR     43  36  75 NW10      30.00R
$$

ABBREVIATIONS USED IN REMARKS
   TC - TEMPERATURE IN CELSIUS
  WCI - WIND CHILL INDEX
   HX - HEAT INDEX
  VSB - VISIBILITY





USA.gov is the U.S. government's official web portal to all federal, state and local government web resources and services.